GFSNE_850_temp_006.txt.gz
Temp
0 -0 -1 -1 -1 -1 -1 -1 -1 -2 -2 -2 -3 -3 -3 -3 -3 -3 -3 -3 -3 -3 -2 -2 -2 -1 -1 -1 -1 -0 -0 0 1 1 2 3 4 5
-1 -1 -1 -2 -2 -2 -2 -2 -2 -3 -3 -3 -3 -4 -4 -4 -4 -4 -4 -4 -4 -3 -3 -3 -2 -2 -2 -2 -1 -1 -1 -0 0 1 2 3 4 4
-2 -2 -2 -3 -3 -3 -3 -3 -4 -4 -4 -5 -5 -5 -5 -5 -5 -5 -5 -5 -5 -4 -4 -4 -3 -3 -2 -2 -2 -2 -2 -1 -1 0 1 2 3 4
-2 -3 -4 -4 -4 -4 -4 -4 -5 -5 -5 -6 -6 -6 -6 -6 -6 -6 -6 -6 -5 -5 -5 -4 -4 -4 -4 -3 -3 -2 -2 -2 -2 -1 0 1 1 2
-4 -4 -5 -5 -5 -5 -5 -5 -5 -6 -6 -6 -6 -6 -6 -6 -6 -6 -6 -6 -6 -6 -6 -6 -5 -5 -5 -4 -3 -3 -3 -3 -3 -2 -2 -0 0 2
-5 -6 -6 -6 -5 -5 -5 -5 -5 -6 -6 -6 -6 -7 -7 -6 -7 -7 -7 -7 -7 -8 -7 -7 -6 -6 -6 -5 -5 -4 -4 -3 -3 -2 -2 -1 -0 1
-6 -6 -6 -6 -6 -5 -5 -5 -6 -6 -6 -6 -7 -7 -7 -7 -8 -8 -8 -8 -8 -8 -8 -8 -8 -7 -6 -6 -6 -5 -4 -3 -3 -3 -2 -2 -1 0
-7 -7 -7 -6 -6 -6 -6 -6 -6 -6 -7 -7 -8 -8 -8 -8 -8 -9 -9 -9 -8 -8 -8 -8 -8 -7 -7 -6 -6 -5 -4 -4 -4 -3 -3 -2 -2 0
-7 -7 -7 -7 -7 -7 -7 -7 -7 -7 -8 -8 -8 -8 -9 -8 -8 -9 -8 -9 -9 -9 -9 -9 -8 -8 -8 -7 -7 -6 -6 -5 -5 -4 -4 -3 -3 -1
-7 -7 -7 -7 -7 -7 -7 -7 -7 -8 -8 -9 -9 -9 -9 -9 -9 -9 -9 -9 -9 -9 -9 -9 -8 -9 -8 -8 -8 -8 -7 -6 -5 -5 -4 -4 -3 -2
-8 -8 -8 -8 -7 -7 -7 -7 -8 -8 -8 -9 -9 -9 -9 -9 -9 -9 -9 -10 -10 -10 -10 -10 -9 -9 -9 -8 -8 -8 -6 -7 -7 -7 -6 -5 -3 -2
-8 -8 -8 -8 -7 -7 -7 -8 -9 -9 -9 -9 -10 -9 -10 -10 -10 -10 -10 -10 -10 -10 -10 -10 -10 -9 -9 -8 -7 -8 -8 -8 -8 -7 -6 -4 -2 -1
-8 -8 -9 -8 -8 -8 -8 -9 -9 -9 -9 -10 -10 -10 -11 -11 -11 -11 -11 -11 -10 -10 -9 -10 -9 -9 -9 -9 -7 -8 -8 -7 -6 -5 -3 -1 0 1
-8 -9 -9 -8 -8 -8 -9 -9 -9 -10 -10 -11 -11 -11 -11 -11 -11 -11 -10 -10 -10 -9 -9 -8 -9 -9 -8 -8 -8 -7 -7 -6 -5 -4 -2 -0 1 2
-9 -9 -9 -9 -9 -10 -10 -10 -11 -11 -12 -11 -11 -11 -12 -11 -11 -11 -10 -9 -8 -8 -8 -9 -9 -9 -9 -9 -9 -8 -8 -5 -5 -4 -2 -0 0 2
-9 -9 -10 -10 -11 -11 -11 -12 -12 -12 -11 -12 -12 -12 -12 -11 -11 -10 -10 -9 -9 -8 -9 -9 -10 -9 -9 -8 -8 -7 -6 -6 -5 -3 -3 -2 -1 0
-9 -10 -11 -11 -12 -12 -12 -12 -12 -12 -12 -12 -12 -12 -12 -11 -10 -10 -10 -10 -9 -9 -9 -9 -9 -9 -9 -9 -8 -7 -6 -5 -4 -3 -2 -2 -2 -2
-10 -11 -12 -12 -12 -12 -12 -12 -12 -12 -12 -12 -12 -12 -11 -11 -10 -10 -9 -10 -10 -9 -9 -10 -9 -8 -8 -8 -8 -7 -5 -5 -4 -3 -3 -2 -2 -2
-12 -12 -12 -13 -13 -13 -12 -12 -12 -12 -12 -12 -11 -11 -10 -10 -10 -10 -9 -9 -10 -9 -9 -9 -9 -9 -9 -9 -8 -7 -5 -4 -4 -3 -3 -3 -3 -3
-12 -12 -13 -13 -13 -13 -12 -12 -12 -12 -11 -11 -10 -10 -10 -10 -10 -10 -9 -9 -10 -9 -9 -9 -9 -9 -9 -9 -8 -7 -5 -4 -3 -3 -3 -3 -3 -3
-13 -13 -13 -13 -13 -12 -12 -12 -12 -12 -11 -10 -10 -10 -10 -10 -10 -10 -10 -9 -9 -9 -9 -9 -8 -8 -8 -7 -8 -7 -6 -5 -4 -4 -4 -3 -4 -4
-13 -13 -13 -13 -12 -12 -12 -12 -12 -11 -10 -10 -9 -10 -10 -10 -10 -9 -9 -9 -9 -8 -8 -9 -8 -8 -7 -7 -7 -7 -6 -6 -5 -4 -4 -4 -4 -5
-13 -13 -13 -12 -12 -12 -12 -12 -11 -10 -10 -9 -9 -9 -9 -9 -9 -9 -9 -9 -8 -8 -8 -8 -8 -8 -8 -8 -8 -7 -7 -6 -5 -5 -5 -5 -5 -4

GFSNE_850_temp_009.txt.gz
Temp
1 -0 -1 -1 -2 -2 -3 -3 -3 -4 -4 -3 -4 -4 -5 -5 -5 -5 -5 -5 -5 -4 -4 -4 -3 -3 -3 -3 -2 -2 -1 -1 -1 -0 0 -0 1 2
-1 -2 -2 -2 -3 -3 -4 -4 -4 -4 -4 -5 -5 -5 -5 -5 -5 -6 -6 -6 -6 -5 -5 -4 -4 -4 -4 -4 -3 -3 -2 -2 -2 -1 -1 -1 -0 1
-1 -3 -3 -3 -4 -5 -5 -5 -5 -5 -5 -5 -5 -5 -5 -5 -6 -6 -6 -6 -6 -6 -5 -5 -5 -5 -5 -5 -4 -4 -3 -3 -2 -2 -1 -1 -1 -0
-4 -4 -4 -5 -5 -6 -6 -5 -5 -5 -6 -6 -6 -6 -6 -6 -7 -7 -7 -7 -7 -7 -6 -6 -6 -6 -6 -5 -5 -5 -4 -4 -3 -3 -3 -2 -2 -2
-4 -5 -5 -6 -6 -6 -6 -6 -6 -6 -6 -7 -6 -6 -7 -7 -7 -7 -8 -8 -8 -8 -7 -7 -7 -7 -6 -6 -6 -5 -5 -5 -4 -4 -3 -3 -2 -2
-5 -6 -6 -7 -7 -7 -6 -6 -6 -6 -6 -7 -7 -6 -7 -8 -8 -8 -8 -8 -8 -9 -8 -8 -8 -8 -7 -7 -7 -6 -6 -6 -5 -4 -3 -3 -3 -2
-6 -6 -7 -7 -7 -7 -6 -7 -7 -7 -7 -7 -6 -7 -8 -8 -8 -9 -9 -9 -9 -9 -8 -9 -9 -9 -9 -8 -8 -7 -7 -6 -5 -5 -4 -3 -3 -3
-6 -7 -7 -7 -7 -7 -7 -7 -7 -7 -6 -7 -7 -8 -8 -9 -9 -9 -9 -9 -9 -9 -9 -9 -10 -9 -9 -9 -8 -7 -7 -7 -6 -5 -5 -4 -4 -3
-7 -7 -7 -8 -8 -8 -7 -7 -7 -8 -8 -8 -8 -9 -9 -9 -8 -9 -10 -10 -10 -10 -10 -10 -10 -10 -9 -9 -9 -8 -8 -7 -7 -7 -6 -5 -4 -4
-7 -8 -8 -8 -8 -8 -8 -8 -7 -8 -9 -9 -9 -9 -9 -9 -10 -10 -10 -10 -10 -10 -10 -10 -10 -10 -9 -9 -9 -8 -8 -8 -8 -7 -5 -5 -5 -5
-8 -8 -8 -8 -8 -8 -8 -7 -9 -9 -9 -9 -9 -10 -10 -10 -10 -10 -10 -10 -10 -10 -10 -11 -10 -10 -10 -9 -8 -7 -8 -7 -7 -7 -7 -6 -6 -5
-8 -8 -8 -9 -8 -8 -8 -9 -10 -9 -9 -10 -10 -10 -10 -11 -11 -11 -11 -11 -11 -11 -9 -11 -10 -10 -9 -9 -8 -8 -7 -8 -8 -8 -8 -7 -6 -5
-8 -9 -9 -9 -8 -8 -9 -10 -10 -9 -10 -10 -10 -11 -11 -11 -11 -11 -11 -11 -11 -11 -9 -10 -10 -10 -10 -9 -9 -8 -8 -8 -8 -7 -6 -5 -5 -5
-9 -9 -9 -8 -9 -10 -10 -10 -10 -10 -11 -12 -12 -11 -12 -11 -11 -11 -10 -10 -10 -10 -9 -9 -9 -10 -10 -9 -9 -7 -7 -6 -6 -5 -5 -4 -3 -2
-9 -9 -9 -10 -11 -11 -11 -11 -11 -11 -12 -12 -12 -12 -12 -11 -11 -10 -10 -10 -9 -9 -9 -9 -9 -10 -10 -10 -9 -8 -8 -5 -5 -5 -4 -3 -2 -1
-9 -10 -10 -11 -12 -12 -12 -12 -12 -12 -12 -12 -12 -12 -11 -11 -11 -10 -10 -9 -9 -9 -9 -9 -10 -10 -10 -9 -9 -8 -7 -6 -5 -4 -3 -3 -1 -1
-10 -10 -11 -12 -12 -12 -12 -12 -12 -12 -12 -12 -12 -11 -11 -11 -10 -10 -10 -10 -10 -9 -9 -9 -9 -8 -8 -8 -8 -7 -6 -5 -4 -4 -3 -3 -2 -1
-11 -12 -13 -13 -13 -13 -13 -12 -12 -12 -12 -12 -11 -11 -11 -10 -10 -10 -10 -10 -10 -9 -9 -9 -9 -8 -8 -8 -7 -7 -5 -4 -4 -4 -4 -3 -2 -2
-12 -13 -13 -13 -13 -13 -13 -13 -13 -12 -12 -11 -11 -10 -10 -10 -10 -10 -10 -10 -9 -9 -9 -9 -8 -9 -8 -8 -7 -7 -5 -4 -4 -4 -4 -4 -4 -3
-13 -13 -13 -13 -13 -13 -12 -13 -12 -12 -11 -11 -10 -10 -10 -10 -10 -10 -9 -9 -9 -9 -9 -8 -8 -8 -8 -8 -7 -6 -5 -4 -4 -4 -4 -4 -3 -3
-13 -13 -13 -13 -13 -12 -12 -12 -12 -11 -11 -10 -9 -9 -9 -9 -10 -9 -9 -9 -9 -8 -9 -8 -8 -8 -7 -6 -6 -5 -5 -4 -4 -4 -4 -4 -4 -4
-13 -13 -13 -12 -12 -12 -12 -12 -11 -10 -10 -9 -9 -8 -9 -9 -9 -9 -9 -9 -8 -8 -8 -8 -8 -7 -6 -6 -6 -6 -5 -5 -4 -4 -4 -4 -4 -4
-13 -13 -12 -11 -11 -11 -11 -11 -10 -10 -9 -9 -8 -8 -8 -8 -8 -8 -8 -8 -8 -8 -8 -8 -8 -7 -7 -7 -6 -6 -5 -5 -5 -5 -5 -4 -4 -4

GFSNE_850_temp_012.txt.gz
Temp
1 0 -1 -2 -2 -3 -3 -4 -5 -6 -5 -5 -5 -5 -5 -5 -5 -5 -6 -6 -6 -5 -5 -5 -4 -4 -4 -3 -3 -3 -3 -3 -3 -2 -2 -1 -1 -0
-0 -1 -2 -3 -3 -4 -4 -5 -6 -6 -6 -6 -6 -6 -6 -6 -6 -6 -6 -6 -6 -6 -6 -5 -5 -5 -4 -5 -4 -4 -4 -4 -3 -2 -2 -1 -1 -1
-2 -3 -4 -4 -5 -5 -5 -6 -6 -6 -7 -6 -6 -5 -6 -6 -6 -6 -7 -7 -7 -7 -6 -6 -6 -6 -5 -5 -5 -5 -4 -4 -4 -3 -3 -2 -2 -1
-3 -4 -5 -6 -6 -6 -6 -7 -7 -6 -7 -7 -6 -6 -7 -6 -7 -7 -7 -7 -8 -8 -8 -7 -7 -6 -6 -6 -6 -6 -5 -6 -5 -5 -4 -4 -3 -3
-4 -5 -6 -6 -6 -7 -7 -7 -7 -7 -7 -7 -7 -7 -6 -7 -7 -8 -8 -8 -8 -8 -8 -8 -8 -8 -7 -7 -6 -6 -6 -6 -6 -5 -5 -4 -4 -3
-5 -6 -6 -7 -7 -8 -7 -7 -7 -7 -7 -7 -7 -7 -7 -7 -8 -8 -8 -9 -8 -9 -9 -9 -9 -8 -8 -8 -8 -8 -8 -7 -7 -6 -6 -5 -4 -4
-6 -6 -7 -7 -7 -7 -7 -8 -8 -8 -7 -7 -7 -7 -8 -8 -9 -9 -9 -9 -9 -10 -9 -10 -10 -10 -10 -9 -9 -9 -9 -8 -7 -6 -6 -5 -5 -4
-7 -7 -7 -8 -8 -8 -8 -8 -7 -7 -8 -8 -7 -9 -9 -9 -9 -9 -9 -10 -10 -10 -10 -10 -10 -10 -10 -10 -10 -9 -8 -8 -7 -7 -6 -6 -5 -5
-7 -8 -8 -8 -8 -8 -8 -8 -8 -8 -8 -9 -9 -9 -10 -9 -9 -10 -10 -10 -10 -10 -10 -11 -10 -10 -10 -10 -9 -9 -9 -8 -8 -7 -7 -7 -6 -6
-8 -8 -8 -9 -9 -8 -8 -8 -8 -9 -8 -9 -10 -9 -9 -10 -10 -10 -10 -10 -10 -11 -11 -11 -10 -10 -9 -9 -8 -8 -8 -8 -8 -7 -7 -6 -6 -6
-8 -8 -9 -9 -9 -8 -8 -9 -9 -9 -9 -10 -10 -10 -10 -10 -10 -10 -10 -11 -11 -11 -10 -11 -10 -11 -10 -9 -8 -8 -8 -8 -7 -8 -7 -7 -7 -6
-8 -8 -9 -9 -8 -8 -9 -10 -10 -10 -10 -10 -10 -10 -10 -10 -11 -11 -11 -12 -11 -11 -9 -11 -11 -10 -10 -9 -9 -9 -9 -8 -9 -8 -8 -7 -7 -6
-8 -9 -9 -9 -9 -9 -10 -10 -10 -10 -10 -10 -11 -11 -11 -11 -11 -11 -11 -11 -11 -11 -9 -10 -10 -10 -10 -10 -9 -9 -9 -8 -8 -6 -6 -6 -6 -6
-9 -9 -9 -10 -10 -10 -11 -11 -10 -11 -11 -12 -12 -12 -11 -11 -10 -10 -10 -10 -10 -10 -9 -10 -10 -10 -9 -9 -10 -8 -7 -7 -7 -5 -5 -5 -5 -5
-9 -9 -10 -11 -11 -11 -12 -11 -11 -12 -12 -12 -12 -11 -11 -11 -10 -10 -10 -10 -10 -9 -9 -9 -9 -9 -10 -10 -10 -8 -8 -6 -5 -5 -4 -4 -4 -4
-10 -10 -10 -11 -11 -12 -11 -11 -12 -12 -12 -12 -12 -11 -11 -11 -10 -10 -10 -10 -10 -9 -8 -9 -9 -9 -9 -8 -8 -7 -7 -8 -5 -4 -4 -4 -3 -2
-10 -11 -11 -12 -12 -11 -11 -11 -12 -12 -12 -12 -11 -11 -10 -11 -10 -10 -10 -10 -10 -9 -9 -8 -8 -8 -8 -7 -7 -7 -6 -5 -4 -4 -4 -4 -3 -2
-12 -12 -12 -13 -13 -12 -12 -12 -12 -12 -12 -11 -10 -10 -11 -10 -10 -10 -9 -10 -9 -9 -9 -9 -8 -7 -7 -6 -7 -7 -5 -4 -4 -4 -4 -4 -4 -2
-12 -13 -13 -13 -13 -12 -12 -12 -12 -11 -11 -10 -10 -10 -10 -9 -10 -9 -9 -9 -9 -9 -8 -8 -8 -8 -7 -8 -6 -5 -4 -4 -4 -4 -4 -4 -4 -4
-13 -13 -13 -13 -12 -12 -12 -12 -11 -10 -10 -10 -10 -9 -9 -10 -9 -9 -9 -9 -9 -8 -8 -8 -8 -8 -7 -7 -7 -5 -4 -4 -3 -4 -4 -4 -4 -4
-13 -12 -12 -12 -11 -11 -11 -11 -11 -10 -10 -9 -9 -8 -8 -9 -9 -9 -9 -9 -8 -8 -8 -8 -8 -7 -6 -5 -5 -5 -4 -4 -4 -3 -3 -4 -4 -4
-13 -12 -12 -11 -11 -11 -11 -10 -10 -9 -9 -8 -8 -8 -8 -8 -8 -8 -8 -8 -8 -8 -8 -8 -7 -6 -6 -5 -5 -5 -5 -4 -4 -4 -4 -4 -4 -5
-12 -12 -11 -11 -10 -10 -10 -10 -9 -9 -8 -8 -7 -8 -8 -8 -8 -8 -8 -8 -8 -8 -8 -8 -8 -7 -6 -6 -6 -5 -5 -5 -4 -4 -4 -4 -4 -4

GFSNE_850_temp_015.txt.gz
Temp
1 -0 -1 -2 -3 -4 -4 -5 -6 -7 -7 -6 -6 -6 -6 -6 -6 -6 -6 -6 -6 -6 -5 -5 -5 -5 -4 -4 -4 -3 -3 -3 -3 -3 -2 -2 -2 -1
-0 -1 -2 -3 -4 -4 -5 -5 -6 -7 -8 -6 -6 -6 -7 -7 -7 -7 -7 -7 -6 -6 -6 -6 -6 -6 -5 -5 -5 -5 -4 -4 -4 -4 -3 -3 -3 -2
-1 -2 -3 -4 -5 -6 -6 -6 -7 -7 -7 -6 -6 -7 -6 -6 -7 -7 -7 -7 -7 -7 -7 -7 -7 -6 -6 -6 -6 -6 -5 -5 -5 -4 -4 -4 -3 -3
-2 -4 -4 -5 -6 -6 -7 -7 -7 -7 -8 -7 -7 -7 -6 -6 -7 -7 -7 -8 -8 -8 -8 -8 -7 -7 -7 -7 -7 -6 -6 -6 -6 -5 -5 -5 -5 -4
-4 -5 -6 -6 -7 -7 -7 -8 -8 -8 -8 -8 -8 -7 -7 -7 -8 -8 -8 -8 -8 -9 -8 -9 -8 -8 -7 -7 -7 -7 -7 -7 -6 -6 -6 -6 -5 -4
-5 -6 -6 -7 -7 -8 -8 -8 -8 -8 -8 -8 -8 -8 -8 -8 -8 -9 -9 -9 -9 -9 -9 -9 -9 -9 -9 -8 -8 -8 -8 -8 -7 -7 -7 -6 -6 -5
-6 -6 -7 -7 -8 -8 -8 -8 -8 -8 -8 -8 -8 -8 -9 -8 -9 -9 -10 -9 -9 -10 -10 -10 -10 -10 -10 -10 -10 -9 -9 -9 -8 -8 -7 -7 -6 -6
-7 -7 -7 -8 -8 -8 -9 -8 -8 -8 -8 -7 -9 -9 -10 -10 -10 -10 -9 -10 -10 -10 -10 -10 -10 -10 -10 -10 -9 -10 -9 -8 -8 -8 -7 -7 -7 -6
-7 -8 -8 -8 -8 -9 -8 -8 -8 -9 -9 -9 -10 -10 -10 -10 -10 -10 -10 -11 -10 -11 -11 -11 -10 -10 -9 -9 -9 -10 -9 -9 -8 -8 -7 -7 -7 -6
-8 -8 -8 -9 -9 -9 -8 -8 -8 -9 -9 -10 -10 -10 -10 -10 -10 -10 -10 -10 -11 -11 -11 -11 -10 -10 -9 -9 -8 -8 -9 -9 -8 -8 -7 -7 -6 -7
-8 -8 -9 -9 -9 -8 -8 -9 -10 -10 -9 -10 -10 -10 -11 -11 -11 -10 -10 -11 -11 -11 -11 -11 -10 -11 -10 -9 -8 -9 -9 -9 -8 -8 -8 -7 -7 -7
-8 -9 -9 -9 -9 -9 -9 -10 -10 -10 -10 -10 -10 -9 -9 -9 -10 -11 -11 -11 -12 -11 -11 -11 -11 -11 -10 -10 -9 -9 -9 -8 -9 -9 -8 -8 -7 -7
-9 -9 -9 -10 -9 -9 -10 -10 -11 -10 -10 -10 -10 -10 -10 -10 -10 -10 -10 -11 -11 -11 -9 -11 -11 -10 -11 -10 -9 -9 -9 -7 -7 -7 -6 -6 -6 -6
-9 -9 -10 -10 -10 -11 -11 -11 -10 -11 -11 -11 -11 -11 -10 -10 -10 -10 -10 -10 -10 -10 -9 -9 -10 -10 -10 -10 -10 -7 -7 -7 -6 -5 -5 -5 -5 -5
-10 -10 -11 -11 -11 -10 -10 -11 -12 -11 -12 -12 -12 -10 -10 -10 -9 -10 -9 -9 -9 -9 -9 -9 -9 -9 -9 -9 -9 -7 -8 -5 -5 -5 -5 -5 -4 -4
-10 -10 -11 -10 -10 -10 -10 -10 -11 -12 -12 -12 -11 -10 -10 -10 -9 -10 -10 -9 -9 -8 -8 -9 -8 -8 -8 -7 -7 -7 -6 -8 -5 -5 -5 -4 -4 -4
-11 -11 -11 -10 -10 -10 -10 -10 -11 -11 -11 -11 -10 -10 -9 -10 -9 -9 -9 -9 -10 -9 -8 -8 -7 -7 -6 -6 -6 -6 -6 -5 -4 -4 -4 -4 -4 -4
-12 -11 -11 -11 -12 -12 -11 -11 -11 -11 -10 -10 -10 -10 -10 -10 -9 -9 -9 -9 -9 -9 -9 -8 -7 -6 -5 -4 -6 -6 -6 -5 -4 -4 -4 -5 -4 -2
-11 -11 -12 -12 -12 -11 -11 -12 -11 -10 -10 -10 -9 -9 -10 -9 -9 -9 -9 -9 -9 -9 -8 -8 -7 -8 -7 -7 -5 -5 -5 -5 -4 -4 -4 -4 -5 -2
-12 -12 -12 -12 -11 -11 -11 -11 -10 -10 -9 -9 -9 -9 -9 -9 -8 -9 -9 -9 -9 -8 -8 -8 -7 -7 -7 -7 -7 -5 -5 -5 -5 -4 -4 -4 -5 -2
-12 -12 -11 -11 -11 -11 -11 -10 -10 -9 -9 -9 -8 -8 -8 -8 -8 -8 -8 -8 -8 -8 -8 -8 -8 -7 -6 -5 -5 -4 -4 -4 -5 -5 -5 -5 -5 -4
-12 -12 -11 -11 -11 -10 -10 -10 -9 -8 -8 -8 -8 -8 -8 -8 -8 -8 -8 -8 -8 -8 -8 -8 -7 -6 -5 -6 -6 -5 -5 -4 -4 -5 -5 -5 -6 -5
-12 -11 -11 -10 -10 -10 -9 -9 -8 -8 -8 -8 -8 -8 -8 -8 -8 -8 -8 -7 -8 -8 -8 -7 -7 -7 -7 -6 -6 -5 -5 -5 -5 -5 -5 -5 -5 -4

GFSNE_850_temp_018.txt.gz
Temp
1 0 -0 -1 -3 -3 -4 -5 -6 -7 -7 -6 -6 -6 -6 -7 -7 -7 -7 -6 -7 -6 -5 -5 -5 -5 -5 -5 -4 -4 -4 -4 -3 -3 -3 -3 -2 -2
0 -0 -1 -2 -3 -4 -5 -6 -7 -7 -8 -7 -7 -7 -7 -7 -7 -7 -7 -7 -7 -7 -6 -6 -6 -6 -6 -5 -5 -5 -5 -4 -4 -4 -4 -4 -3 -3
0 -1 -2 -3 -4 -5 -6 -7 -7 -7 -8 -7 -7 -7 -7 -7 -7 -7 -8 -8 -8 -7 -8 -7 -7 -6 -6 -6 -6 -6 -6 -5 -5 -5 -4 -4 -4 -3
-1 -2 -3 -4 -5 -6 -7 -7 -8 -8 -8 -8 -8 -8 -7 -7 -7 -8 -8 -8 -8 -8 -8 -8 -7 -7 -7 -7 -7 -7 -6 -6 -6 -6 -5 -5 -4 -4
-3 -4 -5 -6 -6 -7 -8 -8 -8 -8 -8 -9 -8 -8 -7 -8 -8 -8 -8 -9 -9 -9 -9 -9 -9 -8 -8 -8 -7 -7 -7 -7 -7 -7 -6 -6 -5 -5
-4 -5 -5 -6 -7 -8 -8 -8 -8 -8 -8 -8 -8 -8 -8 -8 -9 -9 -10 -10 -10 -10 -10 -10 -9 -9 -9 -9 -9 -8 -8 -8 -8 -7 -7 -7 -7 -6
-5 -6 -7 -7 -8 -8 -8 -8 -8 -8 -8 -7 -9 -9 -9 -10 -10 -10 -10 -10 -10 -10 -10 -10 -10 -10 -10 -10 -10 -10 -10 -9 -8 -8 -8 -7 -7 -7
-6 -7 -8 -8 -8 -9 -9 -9 -8 -7 -8 -9 -9 -10 -10 -10 -10 -10 -10 -10 -10 -10 -10 -10 -10 -10 -10 -10 -9 -10 -9 -9 -8 -8 -7 -7 -7 -7
-7 -8 -8 -8 -8 -9 -9 -9 -8 -8 -9 -10 -10 -10 -10 -10 -10 -10 -10 -11 -11 -11 -11 -11 -10 -10 -10 -9 -10 -10 -9 -9 -8 -8 -8 -8 -7 -7
-8 -8 -8 -9 -9 -9 -8 -8 -9 -9 -9 -10 -10 -10 -10 -10 -10 -10 -10 -10 -11 -11 -11 -11 -10 -10 -10 -9 -8 -9 -10 -9 -8 -8 -8 -8 -7 -7
-8 -9 -9 -9 -9 -8 -8 -9 -10 -9 -9 -9 -10 -10 -10 -10 -11 -10 -10 -11 -11 -11 -10 -11 -11 -11 -10 -9 -9 -9 -9 -9 -8 -8 -8 -7 -7 -7
-9 -9 -9 -10 -9 -9 -9 -10 -10 -10 -10 -10 -10 -9 -9 -8 -9 -10 -11 -11 -12 -11 -8 -11 -11 -11 -10 -10 -9 -8 -8 -7 -7 -8 -8 -8 -7 -7
-9 -9 -9 -10 -9 -10 -10 -10 -10 -9 -10 -10 -9 -9 -9 -9 -9 -9 -10 -11 -11 -11 -8 -11 -11 -10 -11 -10 -8 -7 -7 -7 -7 -6 -6 -5 -6 -6
-9 -10 -10 -10 -10 -11 -11 -11 -10 -11 -10 -10 -10 -10 -10 -9 -9 -9 -9 -9 -9 -10 -9 -9 -10 -10 -9 -9 -10 -6 -6 -5 -6 -4 -5 -5 -5 -5
-10 -10 -11 -11 -10 -10 -10 -11 -11 -10 -11 -12 -11 -10 -9 -9 -9 -9 -8 -9 -8 -8 -8 -8 -9 -8 -9 -9 -9 -6 -6 -6 -5 -5 -5 -5 -5 -5
-10 -10 -10 -10 -10 -10 -10 -9 -10 -10 -12 -11 -10 -9 -9 -9 -8 -9 -9 -9 -9 -7 -7 -8 -8 -8 -7 -6 -6 -5 -6 -7 -6 -5 -5 -5 -5 -4
-11 -11 -10 -10 -10 -10 -10 -10 -10 -10 -10 -10 -10 -9 -9 -9 -8 -9 -9 -9 -9 -9 -7 -6 -6 -6 -5 -5 -5 -5 -6 -6 -5 -5 -5 -5 -5 -4
-11 -11 -11 -11 -11 -11 -10 -10 -10 -10 -10 -9 -9 -9 -9 -9 -9 -9 -9 -9 -9 -8 -8 -8 -7 -6 -4 -3 -5 -5 -6 -6 -6 -5 -5 -5 -4 -2
-11 -11 -11 -11 -11 -11 -11 -11 -10 -9 -9 -9 -9 -9 -9 -9 -9 -9 -9 -9 -8 -8 -8 -8 -7 -8 -8 -8 -4 -5 -5 -6 -6 -5 -5 -5 -4 -0
-11 -12 -11 -11 -11 -11 -11 -10 -9 -9 -9 -8 -8 -8 -8 -9 -9 -8 -8 -8 -8 -8 -8 -7 -7 -7 -7 -7 -7 -5 -5 -5 -6 -6 -5 -5 -3 -0
-11 -11 -11 -11 -10 -10 -10 -9 -9 -9 -9 -8 -8 -8 -8 -9 -8 -8 -8 -8 -8 -8 -8 -8 -7 -7 -6 -5 -5 -5 -5 -5 -5 -6 -6 -5 -4 -2
-11 -11 -11 -10 -10 -10 -9 -9 -8 -8 -8 -8 -8 -8 -8 -8 -8 -8 -8 -7 -8 -8 -8 -7 -7 -7 -6 -6 -6 -5 -5 -5 -5 -5 -5 -6 -5 -5
-11 -11 -10 -10 -10 -9 -9 -8 -8 -8 -8 -8 -8 -8 -8 -8 -8 -8 -7 -7 -8 -8 -8 -7 -7 -7 -7 -6 -6 -5 -5 -5 -5 -5 -5 -5 -5 -5

GFSNE_850_temp_021.txt.gz
Temp
1 1 0 -1 -1 -2 -3 -4 -6 -6 -5 -5 -6 -6 -7 -8 -8 -7 -7 -7 -7 -7 -6 -6 -6 -5 -5 -5 -4 -4 -4 -4 -4 -4 -3 -3 -3 -3
1 0 -1 -1 -2 -3 -4 -5 -6 -7 -7 -6 -6 -7 -8 -8 -8 -8 -8 -8 -8 -7 -7 -7 -6 -6 -6 -6 -5 -5 -5 -5 -5 -5 -4 -4 -3 -3
-0 -1 -1 -2 -3 -4 -4 -5 -6 -7 -8 -6 -8 -8 -8 -8 -8 -8 -8 -8 -8 -8 -8 -7 -7 -7 -7 -6 -6 -6 -6 -6 -5 -5 -5 -4 -4 -4
-1 -1 -2 -3 -3 -4 -5 -6 -7 -8 -8 -8 -8 -8 -8 -8 -8 -8 -9 -9 -9 -9 -9 -8 -8 -8 -7 -7 -7 -7 -7 -6 -6 -6 -6 -5 -5 -5
-2 -2 -3 -5 -5 -6 -7 -8 -8 -8 -9 -9 -8 -7 -8 -8 -9 -9 -9 -9 -9 -10 -9 -9 -9 -8 -8 -8 -7 -7 -7 -7 -7 -7 -6 -6 -6 -5
-2 -4 -5 -6 -7 -7 -8 -8 -8 -8 -8 -8 -8 -8 -9 -8 -9 -9 -10 -9 -10 -10 -9 -9 -9 -9 -9 -9 -9 -9 -8 -8 -8 -7 -7 -7 -7 -7
-4 -5 -6 -7 -7 -8 -8 -8 -8 -8 -8 -7 -8 -9 -9 -9 -10 -10 -10 -10 -10 -10 -10 -10 -9 -9 -9 -9 -9 -9 -9 -9 -9 -8 -8 -7 -7 -7
-6 -6 -7 -7 -8 -9 -9 -9 -8 -8 -7 -8 -9 -9 -10 -10 -10 -10 -10 -10 -10 -10 -10 -10 -10 -10 -10 -9 -10 -10 -9 -9 -8 -8 -8 -7 -7 -7
-6 -7 -8 -8 -9 -9 -9 -9 -8 -8 -9 -9 -10 -10 -10 -10 -9 -10 -10 -10 -10 -10 -10 -10 -9 -10 -9 -9 -9 -10 -9 -9 -8 -8 -8 -8 -7 -7
-7 -8 -8 -9 -9 -9 -9 -8 -9 -9 -10 -10 -10 -10 -10 -9 -10 -10 -10 -10 -10 -9 -10 -11 -10 -10 -9 -8 -7 -8 -9 -9 -9 -8 -8 -8 -7 -7
-8 -8 -9 -9 -9 -9 -8 -9 -9 -10 -9 -9 -10 -10 -10 -9 -9 -11 -10 -11 -11 -10 -8 -11 -10 -11 -9 -7 -6 -7 -9 -9 -8 -8 -8 -7 -7 -7
-9 -9 -10 -10 -9 -9 -9 -10 -10 -10 -10 -10 -10 -9 -8 -8 -8 -10 -10 -11 -12 -12 -8 -11 -11 -11 -10 -8 -7 -5 -5 -5 -6 -7 -8 -8 -8 -7
-9 -9 -10 -10 -9 -9 -10 -10 -11 -10 -10 -10 -9 -8 -8 -8 -8 -8 -9 -10 -11 -11 -8 -11 -11 -9 -11 -10 -6 -4 -5 -5 -6 -6 -5 -5 -5 -6
-9 -10 -10 -10 -10 -11 -11 -10 -11 -11 -10 -10 -10 -9 -9 -8 -8 -8 -8 -8 -9 -9 -8 -9 -10 -9 -9 -9 -9 -4 -4 -4 -5 -5 -6 -5 -5 -5
-10 -10 -10 -11 -10 -10 -9 -10 -9 -9 -10 -11 -11 -9 -9 -8 -8 -8 -8 -8 -8 -7 -8 -8 -9 -8 -9 -9 -9 -6 -6 -5 -5 -6 -6 -6 -5 -5
-10 -10 -10 -10 -10 -9 -9 -9 -9 -10 -11 -11 -10 -9 -8 -8 -8 -9 -8 -9 -8 -7 -7 -8 -8 -8 -7 -5 -7 -4 -5 -7 -6 -6 -6 -5 -5 -5
-11 -11 -10 -10 -10 -9 -9 -9 -9 -9 -10 -9 -9 -9 -8 -9 -8 -8 -9 -9 -9 -8 -7 -7 -7 -7 -5 -5 -5 -4 -6 -6 -6 -6 -6 -5 -4 -4
-11 -10 -10 -10 -10 -10 -10 -9 -9 -9 -9 -9 -9 -9 -9 -9 -9 -9 -9 -9 -8 -8 -8 -8 -8 -7 -5 -4 -5 -5 -5 -6 -6 -6 -5 -5 -3 -2
-10 -10 -11 -11 -10 -10 -10 -10 -9 -9 -9 -9 -9 -9 -9 -10 -9 -9 -8 -8 -8 -8 -8 -8 -8 -8 -8 -7 -4 -4 -6 -5 -6 -6 -5 -4 -4 -2
-10 -11 -11 -11 -10 -10 -10 -10 -9 -8 -8 -8 -9 -9 -9 -9 -9 -8 -8 -8 -8 -9 -8 -7 -8 -8 -8 -7 -7 -4 -5 -5 -6 -6 -5 -4 -3 -1
-11 -11 -11 -10 -10 -10 -10 -9 -9 -8 -8 -9 -8 -8 -8 -8 -8 -8 -8 -8 -8 -8 -8 -8 -7 -7 -7 -6 -6 -5 -4 -5 -5 -5 -6 -5 -4 -2
-11 -11 -10 -10 -10 -10 -9 -9 -8 -8 -8 -8 -8 -8 -8 -8 -8 -8 -8 -8 -8 -8 -8 -7 -7 -7 -6 -6 -6 -5 -5 -4 -4 -5 -5 -5 -5 -5
-11 -11 -10 -10 -10 -9 -9 -8 -8 -8 -8 -8 -8 -7 -7 -7 -7 -8 -8 -7 -7 -8 -8 -7 -7 -7 -7 -6 -6 -5 -5 -5 -6 -4 -4 -5 -5 -4

GFSNE_850_temp_024.txt.gz
Temp
2 2 1 -0 -1 -2 -3 -4 -4 -3 -3 -2 -2 -3 -4 -5 -5 -6 -6 -6 -6 -6 -6 -6 -6 -6 -5 -5 -5 -5 -5 -4 -4 -4 -3 -3 -3 -2
1 1 -0 -1 -2 -3 -4 -5 -5 -5 -5 -3 -4 -4 -5 -6 -6 -6 -6 -6 -7 -7 -7 -6 -6 -6 -6 -6 -6 -5 -5 -5 -4 -4 -4 -4 -3 -3
0 -0 -1 -2 -3 -4 -5 -5 -5 -5 -5 -5 -5 -5 -6 -6 -6 -6 -6 -7 -7 -7 -7 -7 -7 -7 -7 -6 -6 -6 -6 -6 -5 -5 -5 -4 -4 -4
-0 -1 -2 -3 -4 -5 -6 -6 -6 -6 -6 -6 -6 -7 -6 -6 -6 -7 -7 -7 -7 -7 -8 -8 -7 -7 -7 -7 -7 -6 -6 -6 -6 -6 -6 -6 -5 -5
-1 -2 -3 -4 -5 -6 -6 -7 -6 -6 -7 -7 -7 -7 -6 -7 -7 -7 -7 -7 -7 -8 -8 -8 -8 -8 -8 -7 -7 -7 -7 -6 -6 -6 -6 -6 -6 -6
-2 -3 -5 -6 -7 -7 -7 -7 -6 -7 -7 -7 -7 -7 -7 -7 -7 -7 -7 -8 -8 -8 -8 -8 -8 -8 -8 -7 -7 -8 -8 -7 -7 -7 -7 -7 -6 -6
-4 -5 -6 -6 -6 -8 -8 -7 -7 -8 -8 -8 -8 -7 -7 -7 -7 -8 -8 -8 -8 -8 -8 -8 -8 -8 -8 -8 -8 -8 -8 -8 -8 -8 -8 -7 -7 -7
-5 -6 -7 -7 -8 -8 -8 -8 -8 -8 -8 -8 -8 -8 -8 -8 -8 -9 -9 -8 -9 -8 -8 -9 -8 -8 -8 -8 -8 -8 -8 -8 -8 -8 -7 -7 -7 -7
-6 -7 -7 -7 -8 -8 -9 -8 -8 -8 -8 -8 -8 -8 -8 -8 -9 -9 -9 -9 -9 -9 -9 -9 -9 -9 -8 -8 -8 -8 -8 -8 -8 -8 -8 -7 -7 -7
-7 -7 -8 -8 -8 -8 -8 -8 -8 -8 -8 -8 -9 -9 -9 -9 -9 -9 -10 -10 -9 -9 -9 -9 -9 -9 -8 -7 -5 -5 -6 -7 -7 -7 -7 -7 -7 -7
-7 -7 -8 -8 -9 -8 -8 -8 -8 -8 -8 -9 -9 -9 -9 -9 -10 -10 -10 -10 -10 -10 -8 -10 -9 -9 -9 -5 -5 -6 -6 -7 -5 -7 -7 -7 -6 -6
-7 -7 -8 -8 -9 -9 -9 -9 -9 -9 -10 -9 -9 -9 -10 -10 -10 -10 -10 -10 -10 -11 -8 -10 -10 -10 -9 -8 -6 -4 -3 -3 -4 -4 -5 -6 -6 -6
-8 -8 -8 -9 -9 -9 -9 -10 -10 -10 -10 -10 -10 -10 -10 -10 -10 -10 -10 -10 -10 -10 -7 -10 -10 -10 -10 -10 -6 -4 -4 -4 -5 -4 -4 -5 -6 -6
-8 -8 -9 -9 -10 -10 -10 -10 -10 -10 -10 -11 -11 -11 -10 -9 -8 -8 -8 -8 -9 -9 -7 -8 -10 -10 -10 -9 -9 -5 -4 -4 -5 -5 -5 -6 -6 -6
-9 -9 -9 -10 -10 -9 -9 -10 -10 -11 -11 -11 -11 -11 -10 -8 -8 -8 -8 -8 -8 -7 -7 -7 -9 -8 -9 -9 -9 -8 -8 -5 -5 -6 -6 -6 -6 -6
-9 -10 -10 -9 -10 -10 -10 -11 -11 -11 -11 -11 -11 -10 -9 -9 -9 -9 -9 -9 -9 -7 -6 -7 -8 -9 -9 -9 -8 -8 -5 -7 -6 -6 -6 -6 -5 -5
-10 -11 -11 -11 -11 -11 -11 -11 -11 -11 -11 -10 -10 -9 -9 -9 -9 -9 -9 -9 -9 -8 -7 -7 -7 -8 -8 -8 -7 -5 -6 -6 -6 -6 -5 -6 -4 -4
-11 -11 -11 -12 -12 -12 -11 -10 -10 -9 -10 -9 -9 -9 -9 -9 -9 -9 -9 -8 -9 -8 -9 -8 -8 -8 -8 -7 -6 -6 -6 -6 -6 -6 -5 -5 -5 -3
-11 -12 -12 -12 -12 -12 -11 -10 -9 -9 -8 -9 -9 -9 -9 -9 -9 -8 -8 -8 -8 -8 -8 -9 -8 -8 -7 -7 -5 -4 -6 -5 -6 -6 -6 -5 -5 -3
-13 -13 -13 -12 -11 -10 -10 -10 -9 -8 -8 -8 -9 -9 -8 -9 -9 -9 -8 -8 -8 -8 -9 -8 -8 -8 -8 -7 -7 -5 -4 -6 -6 -6 -5 -4 -3 -2
-13 -12 -11 -10 -10 -10 -10 -9 -9 -8 -8 -8 -8 -8 -8 -8 -8 -8 -8 -8 -8 -8 -9 -9 -7 -8 -7 -7 -7 -6 -4 -5 -6 -5 -5 -5 -5 -3
-12 -11 -10 -10 -10 -10 -9 -9 -8 -8 -8 -8 -8 -8 -8 -8 -8 -8 -8 -8 -8 -8 -8 -8 -7 -7 -7 -7 -7 -7 -5 -5 -4 -5 -5 -5 -5 -5
-11 -10 -10 -10 -10 -9 -9 -9 -8 -8 -8 -8 -7 -7 -7 -7 -7 -7 -7 -7 -8 -8 -8 -8 -7 -7 -7 -7 -7 -7 -6 -6 -6 -6 -4 -4 -4 -4

GFSNE_850_temp_027.txt.gz
Temp
3 3 2 1 0 -0 -1 -2 -3 -3 -3 -2 -2 -1 -2 -3 -4 -5 -5 -5 -5 -5 -5 -5 -5 -5 -5 -5 -5 -5 -5 -4 -4 -4 -3 -3 -3 -2
2 2 1 0 -0 -1 -2 -3 -4 -4 -4 -4 -4 -4 -4 -4 -5 -5 -5 -5 -5 -6 -6 -6 -5 -6 -6 -6 -6 -5 -5 -5 -5 -4 -4 -4 -3 -3
1 0 0 -0 -1 -2 -3 -4 -4 -5 -5 -5 -5 -5 -5 -6 -6 -6 -6 -6 -6 -6 -6 -6 -6 -6 -6 -6 -6 -6 -6 -5 -5 -5 -4 -4 -4 -4
0 -0 -1 -2 -3 -4 -4 -5 -5 -5 -6 -6 -6 -6 -6 -6 -6 -6 -6 -7 -7 -6 -6 -6 -6 -6 -6 -6 -6 -6 -6 -6 -5 -5 -5 -5 -5 -5
-0 -1 -2 -3 -4 -5 -5 -6 -6 -6 -6 -6 -6 -6 -7 -7 -7 -7 -7 -6 -7 -7 -7 -7 -7 -7 -7 -6 -6 -6 -6 -6 -6 -6 -6 -6 -5 -5
-2 -3 -4 -4 -5 -6 -6 -7 -7 -7 -7 -7 -7 -7 -7 -7 -7 -7 -7 -7 -7 -8 -7 -7 -7 -7 -7 -7 -7 -7 -7 -7 -7 -6 -6 -6 -6 -6
-3 -4 -5 -5 -6 -7 -7 -7 -7 -7 -8 -8 -8 -8 -7 -7 -7 -7 -8 -8 -8 -7 -8 -6 -8 -7 -7 -7 -7 -7 -7 -7 -7 -6 -6 -6 -6 -6
-4 -4 -5 -6 -6 -7 -7 -7 -7 -8 -8 -8 -7 -7 -8 -8 -8 -8 -8 -9 -8 -8 -8 -8 -7 -7 -8 -7 -8 -7 -7 -7 -7 -6 -6 -6 -6 -6
-4 -5 -6 -6 -7 -7 -8 -8 -8 -8 -8 -8 -8 -8 -8 -8 -8 -9 -8 -9 -9 -8 -9 -9 -7 -8 -7 -6 -7 -7 -7 -7 -6 -6 -6 -6 -6 -6
-6 -6 -7 -7 -7 -7 -8 -8 -8 -8 -8 -8 -8 -8 -9 -9 -8 -8 -9 -9 -9 -8 -9 -9 -8 -8 -8 -8 -5 -5 -4 -6 -7 -6 -6 -6 -6 -6
-6 -6 -7 -7 -7 -7 -8 -8 -8 -9 -9 -8 -9 -9 -8 -8 -8 -9 -9 -9 -9 -8 -9 -10 -9 -9 -8 -6 -6 -6 -6 -5 -4 -5 -6 -6 -6 -6
-7 -7 -7 -7 -7 -8 -8 -8 -9 -9 -9 -9 -9 -9 -9 -9 -9 -9 -9 -9 -9 -10 -9 -10 -10 -10 -10 -9 -7 -5 -4 -4 -4 -4 -4 -6 -6 -5
-8 -8 -8 -8 -8 -8 -8 -9 -10 -9 -9 -9 -10 -10 -9 -9 -10 -10 -10 -10 -10 -10 -7 -10 -11 -10 -11 -10 -7 -6 -6 -4 -4 -4 -3 -4 -5 -6
-8 -8 -9 -9 -8 -9 -9 -10 -10 -9 -10 -10 -10 -10 -10 -9 -9 -9 -8 -9 -10 -10 -8 -9 -10 -10 -10 -10 -10 -6 -5 -5 -4 -4 -4 -5 -6 -5
-9 -9 -9 -9 -9 -10 -10 -10 -10 -10 -10 -11 -11 -10 -10 -9 -9 -8 -8 -9 -9 -8 -7 -8 -9 -10 -10 -10 -9 -9 -9 -6 -4 -5 -6 -6 -6 -5
-9 -9 -10 -10 -10 -10 -10 -10 -10 -11 -10 -10 -10 -9 -9 -9 -9 -9 -9 -9 -10 -7 -7 -7 -8 -9 -9 -9 -8 -8 -8 -8 -7 -6 -6 -6 -5 -5
-10 -10 -10 -10 -10 -10 -11 -10 -10 -10 -10 -10 -10 -9 -9 -10 -8 -8 -9 -10 -11 -9 -8 -6 -7 -9 -9 -8 -8 -7 -7 -7 -6 -6 -6 -6 -4 -4
-10 -10 -11 -11 -11 -11 -11 -10 -10 -10 -9 -9 -9 -9 -10 -9 -9 -8 -9 -9 -10 -9 -9 -8 -9 -8 -8 -8 -7 -7 -7 -7 -6 -6 -6 -6 -6 -4
-11 -11 -12 -12 -12 -12 -11 -10 -10 -9 -9 -9 -9 -9 -9 -9 -9 -8 -8 -9 -9 -9 -8 -9 -9 -8 -8 -7 -7 -7 -7 -6 -6 -6 -6 -6 -6 -4
-12 -12 -12 -12 -11 -11 -10 -10 -10 -9 -8 -8 -8 -8 -8 -9 -8 -8 -8 -9 -9 -8 -8 -8 -8 -8 -8 -7 -8 -5 -5 -7 -6 -6 -6 -5 -5 -5
-12 -12 -12 -12 -11 -10 -10 -10 -9 -8 -8 -8 -8 -8 -8 -8 -8 -8 -8 -8 -9 -8 -8 -8 -8 -8 -7 -7 -7 -7 -5 -6 -6 -6 -6 -6 -5 -5
-12 -12 -11 -11 -10 -10 -9 -9 -9 -8 -8 -8 -8 -8 -8 -8 -8 -8 -8 -8 -7 -8 -8 -8 -7 -7 -7 -7 -7 -7 -6 -6 -5 -5 -5 -5 -5 -5
-11 -11 -10 -10 -10 -9 -9 -9 -8 -8 -8 -8 -8 -8 -7 -7 -7 -8 -7 -7 -7 -7 -8 -8 -7 -7 -7 -7 -7 -6 -6 -6 -6 -5 -5 -5 -5 -4